Weather in Korshunovka

Russia / Tambov Oblast     53°06′40″N   42°03′53″E
temp.,
°C
wind,
m/s
gust,
m/s
humid.,
%
clouds,
%
prec.,
mm/h
press.,
hPa
HPBL,
m
1 march, mon
mon100:00−11ne129584 0.1 102021
03:00−12n119542 0.1 102221
06:00−12n129874 0.0 102321
09:00−10n129681 0.1 102574
12:00−7nw138789 0.0 1026337
15:00−4w348894 0.0 1025467
18:00−8wsw349450 0.0 102475
21:00−7sw4109441 0.0 1023208
2 march, tue
tue200:00−4wsw6119674 0.1 1020577
03:00−2wsw7139287 0.1 1018721
06:00−1wsw61393100 0.1 1013598
09:00+1wsw71493100 0.1 1011789
12:00+1w61299100 0.6 1009613
15:00+1wnw51099100 1.0 1008506
18:000wnw41094100 0.2 1007438
21:00−2wnw41094100 0.3 1008286
3 march, wed
wed300:00−4wnw3896100 0.1 1008203
03:00−4nw499699 0.2 1010312
06:00−4nw41096100 0.2 1010399
09:00−5nw6119096 0.3 1012807
12:00−4nw61086100 0.1 1013834
15:00−4nw6983100 0.1 1015928
18:00−6wnw498986 0.0 1015200
21:00−5w5129480 0.0 1016347
4 march, thu
thu400:00−5w499489 0.0 1015216
03:00−4wsw4109585 0.0 1014267
06:00−4wsw5119399 0.1 1013393
09:00−2wsw7138997 0.1 1011620
12:000sw8148778 0.0 1008667
15:00+1sw9168163 0.0 1007773
18:000sw717771 0.0 1004736
21:00−1wsw617800 0.0 1004599
5 march, fri
fri500:00+1wsw6139498 0.0 1002553
03:00+1wsw5119899 0.9 1003452
06:00+1w4898100 1.0 1003312
09:00−2nne4697100 2.0 1005290
12:00−1ne2397100 0.9 1007287
15:00−1e2396100 1.3 1007266
18:00−2e4797100 1.3 1006255
21:00−1e3598100 3.9 1005158